www.pogodaiklimat.ru

Погода и климат >> Архив погоды >> Гана >> Bole


ПОГОДА в Bole

  • Прогноз погоды в Bole
  • Монитор погоды в Bole
  • Климат города

АРХИВ ПОГОДЫ в Bole

Время (UTC), дата Ветер
(напр.,м/с)
 
Видим.   Явления Облачность Т
(С)
Тd
(С)
f
(%)
Тe
(С)
Тes
(С)
Комфортность P
(гПа)
Po
(гПа)
Тmin
(С)
Tmax
(С)
R
(мм)
R24
(мм)
S
(см)
09 19.06 ЮЗ 1 16 км 3/3 450 м
[Cu hum]
+27.8 +23.4 77 +38 +46 очень
душно
1013.1 1013.0
15 19.06 ЮЗ 1 18 км 6/5 450 м
[Cu med, cong Ac trans]
+31.5 +24.2 65 +43 +50 опасность
перегрева
1009.8 1010.0
21 19.06 ЮЗ 2 15 км зарница 5/1 900 м
[Cb cap Ac trans Ci sp]
+27.5 +23.4 78 +37 +37 очень
душно
1012.1 1012.0
09 20.06 ЮЗ 2 15 км 9/6 360 м
[Cu Sc Ac trans]
+25.5 +21.6 79 +33 +35 очень
душно
1015.4 1015.0
12 20.06 ЮЗ 3 18 км 9/6 360 м
[Cu Sc Ac trans]
+27.0 +21.9 74 +35 +39 очень
душно
1014.2 1014.0
15 20.06 ЮЗ 2 13 км 8/8 360 м
[Cu Sc]
+29.0 +22.7 69 +38 +41 очень
душно
1010.7 1011.0
18 20.06 Ю 4 15 км гроза без осадков 9/9 360 м
[Cb cap]
+25.5 +21.9 81 +33 +33 очень
душно
1012.4 1012.0 +29.0
21 20.06 Ю 1 12 км гроза, ливневой дождь 9/5 360 м
[Cb cap Ac trans]
+22.5 +21.7 95 +30 +30 очень
душно
1015.2 1015.0
00 21.06 ЮЗ 2 15 км в посл. час дождь {гроза} 9/4 300 м
[St As trans Ci sp]
+23.0 +22.0 94 +31 +31 очень
душно
1015.3 1015.0 28
03 21.06 ЮЗ 1 15 км 9/3 360 м
[Sc Ac trans]
+22.8 +21.8 94 +31 +31 очень
душно
1014.7 1015.0
06 21.06 штиль 0 15 км 9/5 360 м
[Sc Ac trans]
+22.5 +21.8 96 +30 +30 очень
душно
1014.4 1014.0 +22.5 28
09 21.06 ЮЗ 1 15 км 9/9 360 м
[Sc]
+24.3 +22.9 92 +32 +33 очень
душно
1016.5 1017.0
12 21.06 ЮЗ 2 18 км 8/8 360 м
[Cu Sc]
+27.0 +23.1 79 +36 +41 очень
душно
1014.9 1015.0
15 21.06 ЮЗ 2 18 км 6/6 360 м
[Cu Sc]
+29.9 +23.4 68 +40 +45 очень
душно
1012.2 1012.0
18 21.06 ЮЗ 1 18 км 6/6 360 м
[Cu Sc Ci fib]
+29.0 +23.8 74 +40 +40 очень
душно
1012.7 1013.0 +29.9
21 21.06 штиль 0 15 км ясно +25.5 +23.7 90 +35 +35 очень
душно
1015.2 1015.0
03 22.06 штиль 0 14 км 5/5 360 м
[Sc]
+24.4 +22.7 90 +32 +32 очень
душно
1013.2 1013.0
06 22.06 штиль 0 15 км 6/4 360 м
[Sc Ac trans]
+24.0 +23.0 94 +32 +32 очень
душно
1015.5 1016.0 +24.0
09 22.06 ЮЗ 1 18 км 5/3 450 м
[Cu hum Ci sp]
+28.6 +23.6 74 +39 +47 очень
душно
1016.3 1016.0
12 22.06 С 2 16 км 8/4 450 м
[Cu med, cong Ac trans Ci sp]
+31.0 +23.6 65 +42 +51 опасность
перегрева
1013.4 1013.0
15 22.06 СЗ 1 18 км 6/5 450 м
[Cu med, cong Ac trans Ci sp]
+31.5 +22.6 59 +41 +47 опасность
перегрева
1011.4 1011.0
09 23.06 СЗ 1 18 км 6/3 450 м
[Cu med, cong Ac trans]
+28.0 +23.4 76 +38 +44 очень
душно
1013.5 1014.0
12 23.06 СЗ 2 18 км 5/4 450 м
[Cu med, cong Ci sp]
+31.5 +24.2 65 +43 +55 опасность
перегрева
1012.3 1012.0
15 23.06 СЗ 1 18 км 6/5 450 м
[Cu med, cong Ac trans]
+32.7 +24.1 61 +45 +51 опасность
перегрева
1008.7 1009.0
18 23.06 ЮЗ 1 18 км 8/0
[Ac trans Ci fib]
+31.0 +24.7 69 +44 +44 опасность
перегрева
1009.4 1009.0 +32.7
03 24.06 ЮЗ 1 15 км 6/0
[Ac trans]
+24.3 +20.9 81 +30 +30 очень
душно
1011.3 1011.0
06 24.06 ЮВ 3 15 км гроза, ливневой дождь 9/5 360 м
[Cb cap Ac trans]
+22.0 +20.9 93 +28 +28 душно 1013.3 1013.0 +22.0 5
12 24.06 ЮЗ 2 18 км {гроза, дождь} 8/5 400 м
[Cu Sc Ac trans]
+27.1 +22.3 75 +35 +42 очень
душно
1012.1 1012.0 1
15 24.06 ЮЗ 1 18 км 8/6 360 м
[Cu Sc Ac trans]
+29.5 +22.8 67 +39 +43 очень
душно
1010.2 1010.0
21 24.06 штиль 0 15 км гроза без осадков 9/6 360 м
[Cb cap Ac trans]
+25.0 +22.6 87 +33 +33 очень
душно
1013.4 1013.0
00 25.06 штиль 0 10 км гроза, ливневой дождь 9/9 360 м
[Cb cap]
+22.9 +22.3 96 +31 +31 очень
душно
1012.1 1012.0 8
03 25.06 ЮЗ 1 15 км {дождь} 8/5 360 м
[Sc Ac trans]
+23.5 +22.7 95 +31 +31 очень
душно
1012.3 1012.0
06 25.06 штиль 0 15 км {дождь} 9/6 360 м
[Sc Ac trans]
+23.0 +22.0 94 +31 +31 очень
душно
1013.4 1013.0 +23.0 18
12 25.06 З 2 16 км в посл. час дождь 8/3 450 м
[Cu hum Ac trans]
+25.4 +23.7 90 +35 +44 очень
душно
1015.5 1016.0 4
15 25.06 СЗ 2 16 км гроза, ливневой дождь 8/5 360 м
[Cb cap Ac trans]
+25.0 +24.0 94 +34 +38 очень
душно
1012.9 1013.0
18 25.06 штиль 0 16 км {гроза, дождь} 5/0
[Ac trans]
+25.0 +22.9 88 +33 +33 очень
душно
1013.0 1013.0 +25.8 7
21 25.06 штиль 0 14 км ясно +24.0 +22.6 92 +31 +31 очень
душно
1015.0 1015.0

 

Местоположение метеостанции Bole (Гана): широта 9.03 долгота -2.48 высота над уровнем моря 301 м.

В архиве по умолчанию представлена погода в Bole за последнюю неделю. Архивные данные за месяц целиком и за предыдущие месяцы, начиная с января 2011 года, Вы можете получить, выбрав интересующий диапазон дат из раскрывающегося списка и нажав кнопку "Ввод!".

Внимание! Время в таблицах - всемирное. Для получения местного времени необходимо прибавить поправку, которая в Bole равна 1 ч.

Смотрите также архив погоды в соседних городах и на ближайших метеорологических станциях:

Погода в Wa (Гана) (113 км)
Погода в Bondoukou (Кот-д'Ивуар) (114 км)
Погода в Wenchi (Гана) (148 км)
Погода в Gaoua (Буркина-Фасо) (164 км)
Погода в Tamale (Гана) (186 км)
Погода в Sunyani (Гана) (190 км)
Погода в Navrongo (Гана) (257 км)
Погода в Yendi (Гана) (274 км)
Погода в Kumasi (Гана) (275 км)
Погода в Po (Буркина-Фасо) (277 км)

Пояснения к столбцам:

Ветер - указаны скорость ветра в м/с - средняя за 10 мин, порывы в срок и между сроками (в фигурных скобках) и направление, откуда дует ветер: С - северный, СВ - северо-восточный, В - восточный, ЮВ - юго-восточный, Ю - южный, ЮЗ - юго-западный, З - западный, СЗ - северо-западный.
Видимость - горизонтальная дальность видимости в метрах или километрах. При видимости от 1 до 10 км при отсутствии осадков обычно наблюдается дымка, при ухудшении видимости до 1 км и менее - туман. В сухую погоду видимость может ухудшаться дымом, пылью или мглою.
Явления - указаны атмосферные явления, наблюдавшиеся в срок или в последний час перед сроком; фигурными скобками обозначены явления, наблюдавшиеся между сроками (за 1-3 часа до срока); квадратными скобками обозначены град или гололедные отложения с указанием их диаметра в мм.
Облачность - указаны через наклонную черту общая и нижняя облачность в баллах и высота нижней границы облаков в метрах; квадратными скобками обозначены формы облаков: Ci - перистые, Cs - перисто-слоистые, Cc - перисто-кучевые, Ac - высококучевые, As - высокослоистые, Sc - слоисто-кучевые, Ns - слоисто-дождевые, Cu - кучевые, Cb - кучево-дождевые. Подробнее классификацию облаков см. в Атласе облаков (PDF).
T - Температура воздуха - температура, измеренная на высоте 2 м над землей.
Td - Температура точки росы - температура, при понижении до которой содержащийся в воздухе водяной пар достигнет насыщения.
f - Относительная влажность воздуха - влажноcть воздуха, измеренная на высоте 2 м над землей.
Te - Эффективная температура - температура, которую ощущает одетый по сезону человек в тени. Характеристика душности погоды. При расчете учитывается влияние влажности воздуха и скорости ветра на теплоощущения человека.
Tes - Эффективная температура на солнце - температура, которую ощущает человек, с поправкой на солнечный нагрев. Характеристика знойности погоды. Зависит от высоты солнца над горизонтом, облачности и скорости ветра. Ночью, в пасмурную погоду, а также при ветре 12 м/с и более поправка равна нулю.
P - Атмосферное давление - приведенное к уровню моря атмосферное давление.
Po - Атмосферное давление - измеренное на уровне метеостанции атмосферное давление.
Tmin - Минимальная температура - минимум температуры воздуха на высоте 2 м над землей.
Tmax - Максимальная температура - максимум температуры воздуха на высоте 2 м над землей.
R - Количество осадков - Количество выпавших осадков за период времени, мм. При наведении курсора мыши на число - период времени, за который выпало указанное количество осадков.
R24 - Количество осадков - Количество выпавших осадков за 24 часа, мм.
S - Снежный покров - Высота снежного покрова, см. При наведении курсора мыши на число - состояние снежного покрова и степень покрытия местности в баллах.